User: anonymous   Login
Location: Shell Point
(30.0571°N, 84.2896°W)
Time: 03:29:36
(UTC-05:00)
Language:

Meteor 2-19 Rocket - Orbit

View from above orbital plane
View from above orbital plane
View from above satellite
View from above satellite

Ground track
Ground track

The orbit data is extracted from the following two-line orbital elements,

1 20671U 90057B   16339.54732884  .00000006  00000-0 -77366-5 0  9991
2 20671  82.5452 166.8336 0015989 140.2132 243.9029 13.84604909336131
Epoch (UTC): 04 December 2016 13:08:09
Eccentricity: 0.0015989
inclination: 82.5452°
perigee height: 936 km
apogee height: 959 km
right ascension of ascending node: 166.8336°
argument of perigee: 140.2132°
revolutions per day: 13.84604909
mean anomaly at epoch: 243.9029°
orbit number at epoch: 33613

The dashed part of the orbit path shows where the satellite is in the earth's shadow,  

DLR